Princeton, MN

5:42 PM CST on January 22, 2017 (GMT -0600)
Princeton Municipal

Weather History for KPNM - December, 2012

Change the Weather History Date:

Monday, December 10, 2012

  Actual Average Record
Temperature  
Mean Temperature 0 °F -  
Max Temperature 8 °F 29 °F 46 °F (2015)
Min Temperature -7 °F 14 °F -9 °F (2000)
Degree Days  
Heating Degree Days 64    
Moisture  
Dew Point -5 °F    
Average Humidity 79    
Maximum Humidity 92    
Minimum Humidity 67    
Precipitation  
Precipitation 0.00 in - - ()
Sea Level Pressure  
Sea Level Pressure 29.86 in    
Wind  
Wind Speed 3 mph (SW)    
Max Wind Speed 7 mph    
Max Gust Speed -    
Visibility 10 miles    
Events      
Averages and records for this station are not official NWS values.
T = Trace of Precipitation, MM = Missing Value Source: NWS Daily Summary

Daily Weather History Graph

Daily Weather History Graph

Search for Another Location

Airport or City:

Trip Planner

Search our weather history database for the weather conditions in past years. The results will help you decide how hot, cold, wet, or windy it might be!

Date:

Astronomy

Dec. 10, 2012 Rise Set
Actual Time 7:44 AM CST 4:30 PM CST
Civil Twilight 7:10 AM CST 5:04 PM CST
Nautical Twilight 6:32 AM CST 5:42 PM CST
Astronomical Twilight 5:56 AM CST 6:18 PM CST
Moon 4:22 AM CST (12/10) 2:25 PM CST (12/10)
Length of Visible Light 9h 54m
Length of Day
8h 46m
Waning Crescent, 10% of the Moon is Illuminated
Dec 10
Waning Crescent
Dec 13
New
Dec 19
First Quarter
Dec 28
Full
Jan 4
Last Quarter

Hourly Weather History & Observations

Time (CST) Temp. Windchill Dew Point Humidity Pressure Visibility Wind Dir Wind Speed Gust Speed Precip Events Conditions
12:12 PM 5.0 °F -6.9 °F -2.2 °F 72% 29.91 in 10.0 mi West 6.9 mph - N/A   Clear
12:13 PM 5.0 °F -6.9 °F -2.2 °F 72% 29.91 in 10.0 mi West 6.9 mph - N/A   Clear
12:31 PM 5.0 °F -4.1 °F -2.2 °F 72% 29.91 in 10.0 mi West 4.6 mph - N/A   Clear
12:51 PM 5.0 °F -4.1 °F -2.2 °F 72% 29.90 in 10.0 mi West 4.6 mph - N/A   Clear
1:12 PM 6.8 °F -0.1 °F -2.2 °F 67% 29.89 in 10.0 mi West 3.5 mph - N/A   Clear
1:31 PM 6.8 °F -0.1 °F -2.2 °F 67% 29.89 in 10.0 mi West 3.5 mph - N/A   Clear
1:51 PM 6.8 °F -0.1 °F -2.2 °F 67% 29.89 in 10.0 mi SW 3.5 mph - N/A   Clear
2:12 PM 8.6 °F - -0.4 °F 67% 29.88 in 10.0 mi Calm Calm - N/A   Clear
2:31 PM 6.8 °F - -0.4 °F 72% 29.87 in 10.0 mi Calm Calm - N/A   Clear
2:51 PM 6.8 °F - -2.2 °F 67% 29.87 in 10.0 mi Calm Calm - N/A   Clear
3:12 PM 6.8 °F -0.1 °F -2.2 °F 67% 29.87 in 10.0 mi West 3.5 mph - N/A   Clear
3:51 PM 5.0 °F -2.1 °F -2.2 °F 72% 29.87 in 10.0 mi West 3.5 mph - N/A   Clear
4:12 PM 5.0 °F - -2.2 °F 72% 29.87 in 10.0 mi Calm Calm - N/A   Clear
4:31 PM 1.4 °F - -2.2 °F 85% 29.87 in 10.0 mi Calm Calm - N/A   Clear
4:51 PM -0.4 °F - -5.8 °F 78% 29.87 in 10.0 mi Calm Calm - N/A   Clear
5:12 PM -0.4 °F - -4.0 °F 85% 29.87 in 10.0 mi Calm Calm - N/A   Clear
5:31 PM -2.2 °F - -4.0 °F 92% 29.87 in 10.0 mi Calm Calm - N/A   Clear
5:51 PM -4.0 °F - -7.6 °F 85% 29.87 in 10.0 mi Calm Calm - N/A   Clear
6:11 PM -7.6 °F - -9.4 °F 92% 29.87 in 10.0 mi Calm Calm - N/A   Clear
6:31 PM -4.0 °F - -7.6 °F 85% 29.87 in 10.0 mi Calm Calm - N/A   Clear
6:52 PM -5.8 °F - -9.4 °F 84% 29.86 in 10.0 mi Calm Calm - N/A   Clear
7:11 PM -7.6 °F -16.5 °F -9.4 °F 92% 29.86 in 10.0 mi SE 3.5 mph - N/A   Clear
7:31 PM -5.8 °F - -9.4 °F 84% 29.85 in 10.0 mi Calm Calm - N/A   Clear
7:52 PM -5.8 °F - -9.4 °F 84% 29.87 in 10.0 mi Calm Calm - N/A   Clear
8:11 PM -5.8 °F - -9.4 °F 84% 29.85 in 10.0 mi Calm Calm - N/A   Clear
8:31 PM -0.4 °F - -2.2 °F 92% 29.84 in 10.0 mi Calm Calm - N/A   Clear
8:52 PM -0.4 °F - -4.0 °F 85% 29.84 in 10.0 mi Calm Calm - N/A   Clear
9:11 PM -2.2 °F - -5.8 °F 85% 29.84 in 10.0 mi Calm Calm - N/A   Clear
9:31 PM -2.2 °F - -5.8 °F 85% 29.84 in 10.0 mi Calm Calm - N/A   Clear
9:52 PM -0.4 °F -8.3 °F -4.0 °F 85% 29.83 in 10.0 mi SE 3.5 mph - N/A   Mostly Cloudy
10:11 PM -2.2 °F - -5.8 °F 85% 29.83 in 10.0 mi Calm Calm - N/A   Scattered Clouds
10:31 PM -2.2 °F - -7.6 °F 78% 29.83 in 10.0 mi Calm Calm - N/A   Mostly Cloudy
10:52 PM -2.2 °F - -7.6 °F 78% 29.82 in 10.0 mi Calm Calm - N/A   Overcast
11:11 PM -0.4 °F -8.3 °F -4.0 °F 85% 29.82 in 10.0 mi SE 3.5 mph - N/A   Mostly Cloudy
11:31 PM -0.4 °F -10.4 °F -4.0 °F 85% 29.81 in 10.0 mi SE 4.6 mph - N/A   Mostly Cloudy
11:51 PM -0.4 °F -8.3 °F -5.8 °F 78% 29.80 in 10.0 mi ESE 3.5 mph - N/A   Overcast